LOT3803 EPWA-EPRZ

Flight info

Callsign LOT3803
Flight time 0h 27m
Altitude 20000
Route EVINA DCT KOTEK L981 ETITI
Aircraft B38M/M-SADE2E3FGHIRWYZ/LB1

Departure

Time 2026-04-26 19:37
Airport Warsaw Chopin Airport (EPWA)

Arrival

Time 2026-04-26 20:04
Airport Rzeszów-Jasionka Airport (EPRZ)
Time Latitude Longitude Altitude Speed Heading
2026-04-26 19:17 52.16894 20.96934 366 ft 0 kts 277°
2026-04-26 19:31 52.16895 20.96920 366 ft 4 kts 277°
2026-04-26 19:31 52.16867 20.96856 366 ft 10 kts 180°
2026-04-26 19:32 52.16781 20.96933 366 ft 17 kts 152°
2026-04-26 19:32 52.16667 20.97053 366 ft 20 kts 126°
2026-04-26 19:32 52.16610 20.97245 366 ft 17 kts 114°
2026-04-26 19:32 52.16562 20.97418 366 ft 15 kts 115°
2026-04-26 19:33 52.16518 20.97573 366 ft 14 kts 114°
2026-04-26 19:33 52.16481 20.97708 366 ft 12 kts 114°
2026-04-26 19:33 52.16425 20.97807 366 ft 11 kts 178°
2026-04-26 19:33 52.16356 20.97763 365 ft 9 kts 206°
2026-04-26 19:34 52.16300 20.97710 366 ft 7 kts 243°
2026-04-26 19:34 52.16301 20.97683 366 ft 0 kts 292°
2026-04-26 19:36 52.16302 20.97681 366 ft 1 kts 292°
2026-04-26 19:36 52.16382 20.97393 366 ft 63 kts 295°
2026-04-26 19:37 52.16662 20.96400 366 ft 127 kts 295°
2026-04-26 19:37 52.17103 20.94882 577 ft 160 kts 298°
2026-04-26 19:37 52.17559 20.93303 1466 ft 156 kts 300°
2026-04-26 19:37 52.17994 20.91719 2211 ft 158 kts 300°
2026-04-26 19:38 52.18367 20.89954 2592 ft 178 kts 283°
2026-04-26 19:38 52.18149 20.87796 2877 ft 210 kts 257°
2026-04-26 19:38 52.17626 20.85479 3221 ft 228 kts 259°
2026-04-26 19:38 52.17216 20.82916 3734 ft 235 kts 264°
2026-04-26 19:39 52.16715 20.80357 4396 ft 247 kts 248°
2026-04-26 19:39 52.15520 20.78240 4919 ft 274 kts 216°
2026-04-26 19:39 52.13658 20.77374 5589 ft 290 kts 182°
2026-04-26 19:39 52.11657 20.77893 6377 ft 293 kts 167°
2026-04-26 19:40 52.09653 20.78747 6921 ft 304 kts 168°
2026-04-26 19:40 52.07588 20.79484 7664 ft 306 kts 172°
2026-04-26 19:40 52.05492 20.80084 8406 ft 307 kts 173°
2026-04-26 19:40 52.03367 20.80624 9114 ft 311 kts 174°
2026-04-26 19:41 52.01217 20.81159 9759 ft 315 kts 174°
2026-04-26 19:41 51.99043 20.81708 10353 ft 322 kts 174°
2026-04-26 19:41 51.96753 20.82295 10656 ft 339 kts 174°
2026-04-26 19:41 51.95186 20.82699 10803 ft 351 kts 173°
2026-04-26 19:42 51.91970 20.84172 11167 ft 374 kts 157°
2026-04-26 19:42 51.89605 20.86137 11685 ft 383 kts 149°
2026-04-26 19:42 51.87323 20.88389 12211 ft 388 kts 148°
2026-04-26 19:42 51.85037 20.90703 12688 ft 395 kts 148°
2026-04-26 19:43 51.82645 20.93038 13218 ft 400 kts 149°
2026-04-26 19:43 51.80210 20.95307 13694 ft 406 kts 150°
2026-04-26 19:43 51.77757 20.97519 14252 ft 408 kts 151°
2026-04-26 19:43 51.75226 20.99761 14678 ft 416 kts 151°
2026-04-26 19:44 51.72677 21.02002 15228 ft 419 kts 151°
2026-04-26 19:44 51.70110 21.04255 15741 ft 423 kts 152°
2026-04-26 19:44 51.67495 21.06550 16219 ft 427 kts 152°
2026-04-26 19:44 51.64908 21.08823 16799 ft 427 kts 152°
2026-04-26 19:45 51.62293 21.11119 17170 ft 435 kts 152°
2026-04-26 19:45 51.59626 21.13461 17616 ft 439 kts 152°
2026-04-26 19:45 51.56929 21.15829 18050 ft 442 kts 152°
2026-04-26 19:45 51.54205 21.18217 18428 ft 447 kts 152°
2026-04-26 19:46 51.51500 21.20587 18882 ft 449 kts 152°
2026-04-26 19:46 51.48753 21.22988 19309 ft 453 kts 152°
2026-04-26 19:46 51.45943 21.25440 19747 ft 456 kts 152°
2026-04-26 19:46 51.43175 21.27854 20215 ft 455 kts 153°
2026-04-26 19:47 51.40367 21.30297 20247 ft 463 kts 152°
2026-04-26 19:47 51.38488 21.31930 20246 ft 462 kts 152°
2026-04-26 19:47 51.34695 21.35223 20251 ft 458 kts 152°
2026-04-26 19:47 51.31895 21.37651 20247 ft 458 kts 153°
2026-04-26 19:48 51.29105 21.40064 20245 ft 459 kts 152°
2026-04-26 19:48 51.26268 21.42516 20240 ft 459 kts 152°
2026-04-26 19:48 51.23469 21.44933 20253 ft 458 kts 153°
2026-04-26 19:48 51.20672 21.47345 20246 ft 460 kts 152°
2026-04-26 19:49 51.17865 21.49762 20246 ft 459 kts 152°
2026-04-26 19:49 51.15041 21.52190 20246 ft 458 kts 152°
2026-04-26 19:49 51.12235 21.54600 20244 ft 459 kts 152°
2026-04-26 19:49 51.09433 21.57002 20241 ft 460 kts 153°
2026-04-26 19:50 51.06596 21.59430 20243 ft 459 kts 152°
2026-04-26 19:50 51.03815 21.61808 20238 ft 459 kts 152°
2026-04-26 19:50 51.00966 21.64241 20238 ft 457 kts 153°
2026-04-26 19:50 50.98210 21.66592 20237 ft 443 kts 153°
2026-04-26 19:51 50.95528 21.68880 19999 ft 434 kts 153°
2026-04-26 19:51 50.92894 21.71123 19500 ft 433 kts 154°
2026-04-26 19:51 50.90228 21.73387 18958 ft 434 kts 153°
2026-04-26 19:51 50.87593 21.75616 18414 ft 433 kts 153°
2026-04-26 19:52 50.84913 21.77881 17857 ft 433 kts 153°
2026-04-26 19:52 50.82268 21.80116 17297 ft 433 kts 153°
2026-04-26 19:52 50.79623 21.82353 16732 ft 432 kts 152°
2026-04-26 19:52 50.76955 21.84607 16158 ft 431 kts 152°
2026-04-26 19:53 50.74337 21.86816 15593 ft 430 kts 153°
2026-04-26 19:53 50.71698 21.89037 15016 ft 428 kts 152°
2026-04-26 19:53 50.69079 21.91238 14443 ft 426 kts 153°
2026-04-26 19:53 50.66475 21.93423 13875 ft 424 kts 152°
2026-04-26 19:54 50.63858 21.95616 13302 ft 422 kts 152°
2026-04-26 19:54 50.61295 21.97762 12731 ft 419 kts 152°
2026-04-26 19:54 50.58714 21.99921 12148 ft 415 kts 152°
2026-04-26 19:54 50.56209 22.02012 11581 ft 402 kts 152°
2026-04-26 19:55 50.53776 22.04041 11037 ft 389 kts 152°
2026-04-26 19:55 50.51440 22.05989 10591 ft 375 kts 152°
2026-04-26 19:55 50.49196 22.07857 10407 ft 354 kts 152°
2026-04-26 19:55 50.47053 22.09640 10281 ft 338 kts 152°
2026-04-26 19:56 50.45041 22.11312 10248 ft 323 kts 152°
2026-04-26 19:56 50.43071 22.12947 10246 ft 312 kts 152°
2026-04-26 19:56 50.41160 22.14532 10172 ft 317 kts 152°
2026-04-26 19:56 50.39181 22.16172 9759 ft 320 kts 152°
2026-04-26 19:57 50.37221 22.17793 9515 ft 314 kts 152°
2026-04-26 19:57 50.35295 22.19385 9304 ft 308 kts 152°
2026-04-26 19:57 50.33451 22.20908 9019 ft 306 kts 152°
2026-04-26 19:57 50.33183 22.21129 8973 ft 306 kts 152°
2026-04-26 19:58 50.31289 22.22692 8680 ft 303 kts 152°
2026-04-26 19:58 50.29425 22.24229 8379 ft 302 kts 152°
2026-04-26 19:58 50.27587 22.25742 7879 ft 302 kts 152°
2026-04-26 19:58 50.25729 22.27271 7410 ft 299 kts 152°
2026-04-26 19:59 50.23923 22.28755 7094 ft 292 kts 152°
2026-04-26 19:59 50.22150 22.30212 6667 ft 290 kts 152°
2026-04-26 19:59 50.20368 22.31675 6165 ft 290 kts 152°
2026-04-26 19:59 50.18538 22.33176 5380 ft 300 kts 152°
2026-04-26 20:00 50.16670 22.34656 4759 ft 301 kts 156°
2026-04-26 20:00 50.14684 22.35356 4482 ft 286 kts 185°
2026-04-26 20:00 50.12871 22.34564 4290 ft 264 kts 217°
2026-04-26 20:00 50.11541 22.32738 4018 ft 245 kts 240°
2026-04-26 20:01 50.10786 22.30548 4000 ft 219 kts 261°
2026-04-26 20:01 50.10627 22.28249 3753 ft 213 kts 278°
2026-04-26 20:01 50.10672 22.25961 3464 ft 215 kts 276°
2026-04-26 20:01 50.10671 22.23610 3157 ft 213 kts 277°
2026-04-26 20:02 50.10717 22.21337 2859 ft 211 kts 278°
2026-04-26 20:02 50.10750 22.19087 2561 ft 205 kts 277°
2026-04-26 20:02 50.10777 22.16923 2274 ft 197 kts 277°
2026-04-26 20:02 50.10802 22.15497 2093 ft 192 kts 277°
2026-04-26 20:03 50.10837 22.12881 1755 ft 167 kts 277°
2026-04-26 20:03 50.10862 22.11180 1543 ft 150 kts 276°
2026-04-26 20:03 50.10889 22.09569 1336 ft 148 kts 275°
2026-04-26 20:03 50.10910 22.07978 1132 ft 145 kts 274°
2026-04-26 20:04 50.10938 22.06414 922 ft 142 kts 273°
2026-04-26 20:04 50.10949 22.04930 733 ft 133 kts 271°
2026-04-26 20:04 50.10970 22.03602 671 ft 99 kts 271°
2026-04-26 20:04 50.10980 22.02889 678 ft 37 kts 271°
2026-04-26 20:05 50.10983 22.02636 681 ft 21 kts 271°
2026-04-26 20:05 50.10987 22.02386 681 ft 15 kts 272°
2026-04-26 20:05 50.11033 22.02300 682 ft 10 kts 347°
2026-04-26 20:05 50.11107 22.02294 684 ft 10 kts 359°
2026-04-26 20:06 50.11185 22.02294 685 ft 11 kts
2026-04-26 20:06 50.11288 22.02305 687 ft 15 kts 21°
2026-04-26 20:06 50.11325 22.02415 686 ft 5 kts 59°
2026-04-26 20:06 50.11363 22.02430 686 ft 7 kts 357°
2026-04-26 20:07 50.11395 22.02432 686 ft 3 kts
2026-04-26 20:07 50.11407 22.02432 686 ft 0 kts
2026-04-26 20:07 50.11411 22.02432 686 ft 0 kts